COSMOS 252 DEB *, 4421

Orbit data source: Space-Track

COSMOS 252 DEB *, 4421 is space debris in LEO originally from a launch on Fri, 01 Nov 1968 UTC launched from the Tyuratam Missile And Space Complex (TTMTR). Debris objects in space refer to the collection of defunct objects orbiting the Earth. Examples of debris include non-operational satellites, rocket bodies, and fragments generated from explosions, collisions, or faulty payload assembly.

Loading next visibility...
Identifier
4421, 1968-097CF
Orbit
LEO
Country
Flag of CISCIS
Related business
Manufacturer
Unknown
Mission
Spacecraft
Bus & Motor
Unknown
Mass
Unknown
Launch date (UTC)
1968-11-01 (57 years ago)
Launch vehicle
Unknown
Launch site
Tyuratam Missile And Space Complex (TTMTR)
Object type
Payload
Rocket body
Debris
Shape & HBR
Unknown shape, 0.1 m
Radar Cross Section
Small (<0.1 m²)

Expand to show TLE details & history
Last TLE update: 10 hours ago

TLE from 10 hours ago
0 COSMOS 252 DEB *
1 04421U 68097CF  25343.43415069  .00006823  00000-0  10221-2 0  9997
2 04421  62.7327  22.9215 0645739 146.7111 217.6341 13.88304565533071
Epoch: 2025-12-09T10:25Z
TLE epoch observation values (Epoch: 2025-12-09T10:25:10.619Z)
Latitude
0.00001°
Longitude
148.20837°
Altitude
1,320.877 km
Speed
7.006 km/s
True Right ascension
01h 31m 41s
True Declination
0° 00' 00"
Sunlit
Object was in daylight at epoch
Visualization orbit readout
Latitude
Unknown
Longitude
Unknown
Altitude
Unknown
Speed
Unknown
Apparent Right ascension
Unknown
Apparent Declination
Unknown
Sunlit
N/A
Visualization observer readout
Local Sidereal Time
19:07:53
Azimuth
Unknown
Elevation
Unknown
Doppler factor
Unknown
Orbital elements
Apogee altitude
1,405.599 km
Perigee altitude
461.323 km
Semi-major axis
7,311.598 km
Eccentricity
0.06457
Inclination
62.7327°
RAAN
22.9215°
Arg. of periapsis
146.7111°
True anomaly
213.39168°
Mean anomaly
217.6341°
Eccentric anomaly
215.48633°
Mean motion
3.47156 °/min
Orbital period
103.7 mins
BSTAR
0.0010221
Loading maneuver chart data...
Computing Atmospheric mass density...

Documentation

Showing up to 5 results
|